TimePDT,TemperatureF,Dew PointF,Humidity,Sea Level PressureIn,VisibilityMPH,Wind Direction,Wind SpeedMPH,Gust SpeedMPH,PrecipitationIn,Events,Conditions,WindDirDegrees,DateUTC
12:15 AM,73.4,57.2,57,29.72,5.0,Calm,Calm,-,N/A,,Clear,0,2013-09-14 07:15:00
12:35 AM,73.4,57.2,57,29.72,10.0,Calm,Calm,-,N/A,,Clear,0,2013-09-14 07:35:00
12:55 AM,73.4,57.2,57,29.72,10.0,NNW,4.6,-,N/A,,Clear,330,2013-09-14 07:55:00
1:15 AM,73.4,57.2,57,29.72,10.0,Calm,Calm,-,N/A,,Clear,0,2013-09-14 08:15:00
1:35 AM,73.4,57.2,57,29.72,10.0,NNW,3.5,-,N/A,,Clear,330,2013-09-14 08:35:00
1:55 AM,73.4,57.2,57,29.72,10.0,Calm,Calm,-,N/A,,Clear,0,2013-09-14 08:55:00
2:15 AM,69.8,55.4,60,29.72,10.0,ENE,3.5,-,N/A,,Clear,70,2013-09-14 09:15:00
2:35 AM,69.8,57.2,64,29.71,10.0,Calm,Calm,-,N/A,,Clear,0,2013-09-14 09:35:00
2:55 AM,69.8,57.2,64,29.71,10.0,Calm,Calm,-,N/A,,Clear,0,2013-09-14 09:55:00
3:15 AM,68.0,57.2,68,29.72,10.0,Calm,Calm,-,N/A,,Clear,0,2013-09-14 10:15:00
3:35 AM,68.0,57.2,68,29.71,10.0,Calm,Calm,-,N/A,,Clear,0,2013-09-14 10:35:00
3:55 AM,68.0,57.2,68,29.71,10.0,Calm,Calm,-,N/A,,Clear,0,2013-09-14 10:55:00
4:15 AM,66.2,57.2,73,29.71,10.0,WSW,3.5,-,N/A,,Clear,250,2013-09-14 11:15:00
4:35 AM,68.0,57.2,68,29.72,10.0,West,4.6,-,N/A,,Clear,260,2013-09-14 11:35:00
4:55 AM,66.2,57.2,73,29.71,10.0,West,3.5,-,N/A,,Clear,270,2013-09-14 11:55:00
5:15 AM,66.2,55.4,68,29.72,10.0,Calm,Calm,-,N/A,,Clear,0,2013-09-14 12:15:00
5:35 AM,66.2,57.2,73,29.72,10.0,Calm,Calm,-,N/A,,Clear,0,2013-09-14 12:35:00
5:55 AM,66.2,57.2,73,29.72,10.0,Calm,Calm,-,N/A,,Clear,0,2013-09-14 12:55:00
6:15 AM,64.4,55.4,73,29.73,10.0,Calm,Calm,-,N/A,,Clear,0,2013-09-14 13:15:00
6:35 AM,64.4,57.2,77,29.73,10.0,Calm,Calm,-,N/A,,Clear,0,2013-09-14 13:35:00
6:55 AM,66.2,57.2,73,29.73,9.0,Calm,Calm,-,N/A,,Clear,0,2013-09-14 13:55:00
7:15 AM,66.2,55.4,68,29.74,8.0,Calm,Calm,-,N/A,,Clear,0,2013-09-14 14:15:00
7:35 AM,66.2,57.2,73,29.75,8.0,Calm,Calm,-,N/A,,Clear,0,2013-09-14 14:35:00
7:55 AM,68.0,59.0,73,29.75,8.0,Calm,Calm,-,N/A,,Clear,0,2013-09-14 14:55:00
8:15 AM,69.8,59.0,68,29.75,9.0,Calm,Calm,-,N/A,,Clear,0,2013-09-14 15:15:00
8:35 AM,71.6,59.0,64,29.75,7.0,Calm,Calm,-,N/A,,Clear,0,2013-09-14 15:35:00
8:55 AM,73.4,60.8,65,29.75,7.0,Calm,Calm,-,N/A,,Clear,0,2013-09-14 15:55:00
9:15 AM,75.2,60.8,61,29.75,9.0,Calm,Calm,-,N/A,,Clear,0,2013-09-14 16:15:00
9:35 AM,78.8,60.8,54,29.76,8.0,Calm,Calm,-,N/A,,Clear,0,2013-09-14 16:35:00
9:55 AM,78.8,60.8,54,29.76,8.0,WSW,3.5,-,N/A,,Clear,250,2013-09-14 16:55:00
10:15 AM,80.6,60.8,51,29.76,10.0,WSW,3.5,-,N/A,,Clear,250,2013-09-14 17:15:00
10:35 AM,82.4,60.8,48,29.76,9.0,Calm,Calm,-,N/A,,Clear,0,2013-09-14 17:35:00
10:55 AM,84.2,60.8,45,29.75,10.0,West,3.5,-,N/A,,Clear,260,2013-09-14 17:55:00
11:15 AM,84.2,60.8,45,29.75,10.0,West,5.8,-,N/A,,Clear,270,2013-09-14 18:15:00
11:35 AM,86.0,60.8,43,29.74,10.0,West,4.6,-,N/A,,Clear,260,2013-09-14 18:35:00
11:55 AM,87.8,60.8,40,29.74,10.0,WNW,5.8,-,N/A,,Clear,290,2013-09-14 18:55:00
12:15 PM,89.6,59.0,36,29.73,10.0,WNW,5.8,-,N/A,,Clear,300,2013-09-14 19:15:00
12:35 PM,89.6,60.8,38,29.72,10.0,WNW,5.8,-,N/A,,Clear,290,2013-09-14 19:35:00
12:55 PM,89.6,59.0,36,29.71,10.0,NW,6.9,-,N/A,,Clear,310,2013-09-14 19:55:00
1:15 PM,91.4,59.0,34,29.70,10.0,WNW,5.8,-,N/A,,Clear,300,2013-09-14 20:15:00
1:35 PM,91.4,57.2,31,29.69,10.0,WNW,6.9,-,N/A,,Clear,290,2013-09-14 20:35:00
1:55 PM,91.4,57.2,31,29.68,10.0,WNW,4.6,-,N/A,,Clear,290,2013-09-14 20:55:00
2:15 PM,93.2,57.2,30,29.67,10.0,WNW,8.1,-,N/A,,Clear,290,2013-09-14 21:15:00
2:35 PM,93.2,55.4,28,29.67,10.0,West,6.9,-,N/A,,Clear,280,2013-09-14 21:35:00
2:55 PM,93.2,55.4,28,29.66,10.0,West,8.1,-,N/A,,Clear,280,2013-09-14 21:55:00
3:15 PM,93.2,55.4,28,29.66,10.0,West,8.1,-,N/A,,Clear,280,2013-09-14 22:15:00
3:35 PM,93.2,57.2,30,29.65,10.0,WNW,9.2,-,N/A,,Clear,300,2013-09-14 22:35:00
3:55 PM,93.2,57.2,30,29.64,10.0,WNW,8.1,-,N/A,,Clear,300,2013-09-14 22:55:00
4:15 PM,95.0,57.2,28,29.64,10.0,West,6.9,-,N/A,,Clear,280,2013-09-14 23:15:00
4:35 PM,93.2,57.2,30,29.63,10.0,WNW,9.2,-,N/A,,Clear,290,2013-09-14 23:35:00
4:55 PM,95.0,57.2,28,29.63,10.0,WNW,6.9,-,N/A,,Clear,290,2013-09-14 23:55:00
5:15 PM,95.0,57.2,28,29.63,10.0,WNW,8.1,-,N/A,,Clear,300,2013-09-15 00:15:00
5:35 PM,95.0,57.2,28,29.63,10.0,WNW,6.9,-,N/A,,Clear,300,2013-09-15 00:35:00
5:55 PM,93.2,57.2,30,29.63,10.0,WNW,6.9,-,N/A,,Clear,290,2013-09-15 00:55:00
6:15 PM,93.2,57.2,30,29.63,10.0,WNW,6.9,-,N/A,,Clear,290,2013-09-15 01:15:00
6:35 PM,91.4,57.2,31,29.63,10.0,WNW,6.9,-,N/A,,Clear,300,2013-09-15 01:35:00
6:55 PM,89.6,57.2,33,29.63,10.0,WNW,6.9,-,N/A,,Clear,300,2013-09-15 01:55:00
7:15 PM,87.8,57.2,35,29.64,10.0,NW,5.8,-,N/A,,Clear,310,2013-09-15 02:15:00
7:35 PM,86.0,55.4,35,29.64,10.0,NW,4.6,-,N/A,,Clear,310,2013-09-15 02:35:00
7:55 PM,86.0,57.2,37,29.65,10.0,WNW,4.6,-,N/A,,Clear,300,2013-09-15 02:55:00
8:15 PM,84.2,57.2,40,29.65,10.0,WNW,5.8,-,N/A,,Clear,300,2013-09-15 03:15:00
8:35 PM,80.6,57.2,45,29.66,10.0,West,3.5,-,N/A,,Clear,270,2013-09-15 03:35:00
8:55 PM,78.8,59.0,51,29.67,10.0,West,4.6,-,N/A,,Clear,280,2013-09-15 03:55:00
9:15 PM,80.6,59.0,48,29.67,10.0,WNW,4.6,-,N/A,,Clear,300,2013-09-15 04:15:00
9:35 PM,80.6,57.2,45,29.67,10.0,NW,6.9,-,N/A,,Clear,310,2013-09-15 04:35:00
9:55 PM,78.8,57.2,47,29.68,10.0,WNW,6.9,-,N/A,,Clear,300,2013-09-15 04:55:00
10:15 PM,77.0,57.2,50,29.69,10.0,NW,3.5,-,N/A,,Clear,320,2013-09-15 05:15:00
10:35 PM,77.0,55.4,47,29.69,10.0,WNW,4.6,-,N/A,,Clear,300,2013-09-15 05:35:00
10:55 PM,78.8,55.4,44,29.70,10.0,NW,9.2,-,N/A,,Clear,310,2013-09-15 05:55:00
11:15 PM,75.2,55.4,50,29.71,10.0,NW,8.1,-,N/A,,Clear,310,2013-09-15 06:15:00
11:35 PM,75.2,55.4,50,29.71,10.0,NW,9.2,-,N/A,,Clear,310,2013-09-15 06:35:00
11:55 PM,75.2,55.4,50,29.71,10.0,NW,6.9,-,N/A,,Clear,310,2013-09-15 06:55:00